User: anonymous   Login
Location: Unspecified
(0.0000°N, 0.0000°E)
Time: 00:17:48
(UTC+00:00)
Language:

Feng Yun - Orbit

View from above orbital plane
View from above orbital plane
View from above satellite
View from above satellite

Ground track
Ground track

The orbit data is extracted from the following two-line orbital elements,

1 24834U 97029A   17230.85330241 -.00000206  00000-0  00000+0 0  9995
2 24834  13.7603  30.3075 0100837 160.2894 199.7117  0.96051198 72429
Epoch (UTC): 18 August 2017 20:28:45
Eccentricity: 0.0100837
inclination: 13.7603°
perigee height: 36575 km
apogee height: 37450 km
right ascension of ascending node: 30.3075°
argument of perigee: 160.2894°
revolutions per day: 0.96051198
mean anomaly at epoch: 199.7117°
orbit number at epoch: 7242

The dashed part of the orbit path shows where the satellite is in the earth's shadow,  

DLR